Location: Pedholt
(56.0260°N, 10.2097°E)
Time: 05:20:49
(UTC+00:00)

ATLAS 5 CENTAUR R/B - Pass Details

Date: 14 July 2020
Orbit: 534 x 1124 km, 63.4° (Epoch: 09 August)

Event Time Altitude Azimuth Distance (km) Brightness Sun altitude
Rises 01:32:59 0° 308° (NW) 3,171 5.3 -7.8°
Reaches altitude 10° 01:35:13 10° 305° (NW) 2,330 4.6 -7.6°
Maximum altitude 01:40:34 65° 225° (SW) 955 2.3 -7.2°
Drops below altitude 10° 01:46:52 10° 145° (SE) 2,724 4.6 -6.8°
Sets 01:49:39 0° 143° (SE) 3,749 5.4 -6.5°
